Regional Weather Roundup
Issued by NWS Newport/Morehead, NC

Current Version | Previous Version | Text Only | Print | Product List | Glossary Off
Versions: 1 2 3 4 5 6 7 8 9 10 11 12 13 14 15 16 17 18 19 20 21 22 23 24 25 26 27 28 29 30 31 32 33 34 35 36 37 38 39 40 41 42 43 44 45 46 47 48 49 50
000 ASUS42 KMHX 201713 RWRMHX WEATHER ROUNDUP FOR EASTERN NORTH CAROLINA NATIONAL WEATHER SERVICE NEWPORT/MOREHEAD CITY NC 100 PM EDT THU JUL 20 2017 NOTE: "FAIR" INDICATES FEW OR NO CLOUDS BELOW 12,000 FEET WITH NO SIGNIFICANT WEATHER AND/OR OBSTRUCTIONS TO VISIBILITY NCZ015>017-031-032-045>047-102-103-201800- NORTH COAST CITY SKY/WX TMP DP RH WIND PRES REMARKS EDENTON CLOUDY 89 73 60 CALM 30.07S ELIZABETH CITY MOSUNNY 89 76 65 W6 30.05F HX 100 KITTY HAWK MOSUNNY 85 73 65 CALM 30.06S MANTEO PTSUNNY 85 73 68 W5 30.07F $$ NCZ045>047-081-094-103-104-201800- CENTRAL COAST CITY SKY/WX TMP DP RH WIND PRES REMARKS FRISCO SUNNY 87 76 69 SE7 30.07F $$ NCZ095-097-098-100-101-201800- SOUTHERN COAST CITY SKY/WX TMP DP RH WIND PRES REMARKS BEAUFORT SUNNY 85 76 74 S8 30.07F CEDAR ISLAND NOT AVBL JACKSONVILLE MOSUNNY 89 73 59 VRB5 30.06F PINEY ISLAND CLOUDY N/A N/A N/A NE5 30.07S WILMINGTON MOSUNNY 88 72 58 N5 30.07F $$ NCZ011>013-027>030-043-044-078>080-089-090>093-098-201800- COASTAL PLAIN CITY SKY/WX TMP DP RH WIND PRES REMARKS AHOSKIE N/A 89 70 54 S3 30.06S CLINTON MOSUNNY 90 74 59 CALM 30.07F ELIZABETHTOWN NOT AVBL GOLDSBORO MOSUNNY 92 73 53 E6 30.06S HX 101 GREENVILLE SUNNY 91 70 49 W3 30.08S HAVELOCK SUNNY 91 70 49 NE5 30.08F KENANSVILLE PTSUNNY 90 70 51 SE5 30.07F KINSTON MOSUNNY 90 68 48 CALM 30.07F NEW BERN SUNNY 88 73 61 E5 30.07F RICHLANDS MOSUNNY 89 73 59 CALM 30.07F ROCKY MOUNT SUNNY 91 68 46 CALM 30.06F WASHINGTON SUNNY 87 71 58 NW3 30.07S WHITEVILLE SUNNY 89 72 57 CALM 30.07F $$ AMZ130-135-150-152-154-156-158-170-250-252-270-ANZ085-086-088-633-658-670-201800- MARINE OBSERVATIONS STATION/POSITION TIME TEMP WIND PRES WAVE SWELL AIR SEA DIR/SP/G HT/PER HT/PER (UTC) (F) (DEG/KT/KT) (MB) (FT/S) (FT/S) CHESAPEAKE LIGHT NOT AVBL 64 E VA BEACH 1650 79 81 210/ 8/ 10 1018.1 2/ 7 2/ 7 DUCK 1642 75 64 140/ 9/ 10 1017.6 2 E DUCK 1700 73 N/A 2/14 2/14 OREGON INLET 1648 170/ 6/ 8 N/A 13E OREGON INLT 1648 80 N/A 2/15 2/15 HATTERAS CG 1642 83 79 170/ 4/ 6 1018.6 DIAMOND BUOY 1650 82 87 CALM / 2 1018.5 2/ 8 2/ 8 CAPE LOOKOUT 1700 82 160/ 6/ 7 1018.1 BEAUFORT LAB 1642 81 80 190/ 8/ 10 1017.9 30 SE NEW RVR IN 1608 81 83 200/ 2/ 4 1019.1 30 SE NEW RVR IN 1643 85 N/A 2/15 2/15 27 SE WRIGHTSVLE 1608 81 81 140/ 2/ 4 1019.1 5 SE WRIGHTSVLE 1608 82 81 160/ 2/ 4 1018.8 225 S CAPE HAT 1650 82 84 200/ 10/ 12 1020.1 3/ 7 3/ 7 41 SE CHARLESTON 1650 82 83 240/ 2/ 4 1019.5 2/ 8 2/ 8 $$

USA.gov is the U.S. government's official web portal to all federal, state and local government web resources and services.